Regional Weather Roundup
Issued by NWS

Home | Current Version | Previous Version | Text Only | Print | Product List | Glossary Off
Versions: 1 2 3 4 5 6 7 8 9 10 11 12 13 14 15 16 17 18 19 20 21 22 23 24 25 26 27 28 29 30 31 32 33 34 35 36 37 38 39 40 41 42 43 44 45 46 47 48 49 50

020
ASUS43 KFSD 100010
RWRSD

WEATHER ROUNDUP FOR SOUTH DAKOTA
NATIONAL WEATHER SERVICE SIOUX FALLS SD
600 PM CST TUE FEB 09 2016

NOTE: "FAIR" INDICATES FEW OR NO CLOUDS BELOW 12,000 FEET WITH NO
SIGNIFICANT WEATHER AND/OR OBSTRUCTIONS TO VISIBILITY.


SDZ001>005-009-010-012>017-100100-
NORTHWEST AND NORTH CENTRAL SOUTH DAKOTA

CITY           SKY/WX    TMP DP  RH WIND       PRES   REMARKS
BUFFALO          N/A     45  29  53 NW9       30.03F
FAITH            N/A     40  24  53 NE7       30.09F
MOBRIDGE       CLOUDY    36  19  50 NE3       30.11R
$$

SDZ012>016-024>037-041>051-057-063-072>074-100100-
SOUTHWEST AND SOUTH CENTRAL SOUTH DAKOTA

CITY           SKY/WX    TMP DP  RH WIND       PRES   REMARKS
RAPID CTY ARPT CLOUDY    45  29  53 NE10      30.10S
PIERRE         CLOUDY    33  20  58 S6        30.13F WCI  28
CUSTER         CLEAR     43  24  47 NW12G23   30.15R
ELLSWORTH AFB  CLOUDY    49  31  48 N7        30.10S
PHILIP         CLOUDY    40  28  62 SE5       30.13S
PINE RIDGE     CLOUDY    44  30  57 E3        30.13F
SPEARFISH      FAIR      46  28  49 W13G18    30.12F
WINNER         CLOUDY    35  19  52 SW5       30.16F
$$

SDZ004>011-016>023-039-040-100100-
NORTHEAST SOUTH DAKOTA

CITY           SKY/WX    TMP DP  RH WIND       PRES   REMARKS
ABERDEEN       CLOUDY    27  13  55 E6        30.18F WCI  20
WATERTOWN      CLOUDY    21  12  68 N6        30.16F WCI  13
BROOKINGS      MOCLDY    19  12  74 NW7       30.17F WCI  10
SISSETON         N/A     17   9  70 NE9       30.22S WCI   6
$$

SDZ017-020-022-023-036>040-048>070-100100-
SOUTHEAST SOUTH DAKOTA

CITY           SKY/WX    TMP DP  RH WIND       PRES   REMARKS
SIOUX FALLS    CLOUDY    23  12  62 NW7       30.21F WCI  15
HURON          CLOUDY    28  15  58 CALM      30.19F
CHAMBERLAIN    CLOUDY    32  18  57 SW3       30.17F
MITCHELL       PTCLDY    28  17  63 S3        30.22F
YANKTON        CLEAR     27  10  50 N3        30.23F
$$

ABBREVIATIONS USED IN REMARKS
   TC - TEMPERATURE IN CELSIUS
  WCI - WIND CHILL INDEX
   HX - HEAT INDEX
  VSB - VISIBILITY





USA.gov is the U.S. government's official web portal to all federal, state and local government web resources and services.